TimePDT,TemperatureF,Dew PointF,Humidity,Sea Level PressureIn,VisibilityMPH,Wind Direction,Wind SpeedMPH,Gust SpeedMPH,PrecipitationIn,Events,Conditions,WindDirDegrees,DateUTC
12:53 AM,62.1,37.9,41,30.05,10.0,Calm,Calm,-,N/A,,Clear,0,2013-03-13 07:53:00
1:53 AM,60.1,39.0,46,30.05,10.0,Calm,Calm,-,N/A,,Clear,0,2013-03-13 08:53:00
2:53 AM,60.1,36.0,41,30.04,10.0,Calm,Calm,-,N/A,,Clear,0,2013-03-13 09:53:00
3:53 AM,59.0,36.0,42,30.04,10.0,Calm,Calm,-,N/A,,Clear,0,2013-03-13 10:53:00
4:53 AM,57.9,36.0,44,30.03,10.0,Calm,Calm,-,N/A,,Clear,0,2013-03-13 11:53:00
5:53 AM,57.9,36.0,44,30.04,10.0,Calm,Calm,-,N/A,,Clear,0,2013-03-13 12:53:00
6:53 AM,57.0,37.0,47,30.05,10.0,Calm,Calm,-,N/A,,Clear,0,2013-03-13 13:53:00
7:53 AM,59.0,37.0,44,30.06,10.0,Calm,Calm,-,N/A,,Clear,0,2013-03-13 14:53:00
8:53 AM,66.0,39.0,37,30.07,10.0,Calm,Calm,-,N/A,,Clear,0,2013-03-13 15:53:00
9:53 AM,72.0,39.9,31,30.08,10.0,Calm,Calm,-,N/A,,Clear,0,2013-03-13 16:53:00
10:53 AM,81.0,37.0,21,30.08,10.0,SE,4.6,-,N/A,,Clear,140,2013-03-13 17:53:00
11:53 AM,84.9,34.0,16,30.08,10.0,Calm,Calm,-,N/A,,Clear,0,2013-03-13 18:53:00
12:53 PM,88.0,28.0,12,30.05,10.0,Calm,Calm,-,N/A,,Clear,0,2013-03-13 19:53:00
1:53 PM,90.0,24.1,9,30.02,10.0,Calm,Calm,-,N/A,,Clear,0,2013-03-13 20:53:00
2:53 PM,91.9,28.0,10,30.00,10.0,SE,3.5,-,N/A,,Clear,130,2013-03-13 21:53:00
3:53 PM,91.0,33.1,13,29.98,10.0,South,10.4,-,N/A,,Clear,180,2013-03-13 22:53:00
4:53 PM,90.0,33.1,13,29.98,10.0,South,6.9,-,N/A,,Clear,180,2013-03-13 23:53:00
5:53 PM,87.1,36.0,16,29.99,10.0,South,4.6,-,N/A,,Clear,180,2013-03-14 00:53:00
6:53 PM,84.0,39.0,20,30.00,10.0,SE,4.6,-,N/A,,Clear,130,2013-03-14 01:53:00
7:53 PM,82.0,32.0,16,30.01,10.0,Calm,Calm,-,N/A,,Clear,0,2013-03-14 02:53:00
8:53 PM,77.0,36.0,23,30.02,10.0,Calm,Calm,-,N/A,,Clear,0,2013-03-14 03:53:00
9:53 PM,72.0,48.0,43,30.04,10.0,SE,5.8,-,N/A,,Clear,140,2013-03-14 04:53:00
10:53 PM,70.0,44.1,39,30.04,10.0,Calm,Calm,-,N/A,,Clear,0,2013-03-14 05:53:00
11:53 PM,66.9,48.0,51,30.04,10.0,Calm,Calm,-,N/A,,Clear,0,2013-03-14 06:53:00